This is the latest recevied weather packets stored in our database for station/object N7MLR. If no packets are shown the sender has not sent any weather packets the latest 10 day(s).
| Time | Temp. | Humidity | Pressure | Rain* | Wind** | Luminosity | Snow |
|---|---|---|---|---|---|---|---|
| 1778001960 | 24.44° C | 84% | 1008.7 hPa | 0 mm | - | 232 W/m² | - |
| 1778001657 | 23.89° C | 85% | 1008.7 hPa | 0 mm | - | 242 W/m² | - |
| 1778001351 | 23.89° C | 85% | 1008.8 hPa | 0 mm | - | 210 W/m² | - |
| 1778001049 | 23.89° C | 85% | 1009 hPa | 0 mm | - | 233 W/m² | - |
| 1778000745 | 23.89° C | 86% | 1008.9 hPa | 0 mm | - | 265 W/m² | - |
| 1778000442 | 23.89° C | 86% | 1008.8 hPa | 0 mm | - | 278 W/m² | - |
| 1778000137 | 23.33° C | 87% | 1009 hPa | 0 mm | - | 257 W/m² | - |
| 1777999833 | 23.33° C | 87% | 1009.1 hPa | 0 mm | - | 177 W/m² | - |
| 1777999529 | 23.33° C | 88% | 1009.1 hPa | 0 mm | - | 293 W/m² | - |
| 1777999227 | 22.78° C | 88% | 1009 hPa | 0 mm | - | 204 W/m² | - |
| 1777998926 | 23.33° C | 88% | 1009 hPa | 0 mm | - | 130 W/m² | - |
| 1777998622 | 22.78° C | 89% | 1008.9 hPa | 0 mm | - | 139 W/m² | - |
| 1777998315 | 22.78° C | 89% | 1008.9 hPa | 0 mm | - | 157 W/m² | - |
| 1777998012 | 22.78° C | 90% | 1008.9 hPa | 0 mm | - | 149 W/m² | - |
| 1777997709 | 22.78° C | 90% | 1008.8 hPa | 0 mm | - | 108 W/m² | - |
| 1777997406 | 22.22° C | 90% | 1009 hPa | 0 mm | - | 163 W/m² | - |
| 1777997104 | 22.22° C | 91% | 1009.1 hPa | 0 mm | - | 138 W/m² | - |
| 1777996801 | 22.22° C | 91% | 1008.9 hPa | 0 mm | - | 141 W/m² | - |
| 1777996497 | 21.67° C | 92% | 1008.9 hPa | 0 mm | - | 127 W/m² | - |
| 1777996194 | 21.67° C | 92% | 1008.9 hPa | 0 mm | - | 149 W/m² | - |
| 1777995890 | 21.67° C | 92% | 1008.8 hPa | 0 mm | - | 121 W/m² | - |
| 1777995586 | 21.67° C | 92% | 1008.7 hPa | 0 mm | - | 115 W/m² | - |
| 1777995284 | 21.67° C | 93% | 1008.6 hPa | 0 mm | - | 117 W/m² | - |
| 1777994980 | 21.67° C | 93% | 1008.7 hPa | 0 mm | - | 133 W/m² | - |
| 1777994677 | 21.67° C | 93% | 1008.6 hPa | 0 mm | - | 134 W/m² | - |
* Rain latest hour (hover to see other rain measurements)
** Current wind speed in m/s (hover to see current wind gust speed)